Regional Weather Roundup
Issued by NWS Charleston, SC

Current Version | Previous Version | Graphics & Text | Print | Product List | Glossary On
Versions: 1 2 3 4 5 6 7 8 9 10 11 12 13 14 15 16 17 18 19 20 21 22 23 24 25 26 27 28 29 30 31 32 33 34 35 36 37 38 39 40 41 42 43 44 45 46 47 48 49 50
000
ASUS42 KCHS 230312
RWRCHS

Regional Weather Roundup
National Weather Service Charleston SC
1000 PM EST MON JAN 22 2018

NOTE: "fair" indicates few or no clouds below 12,000 feet with no
significant weather and/or obstructions to visibility.

Not all stations are quality controlled. Use data with caution,
especially dewpoint observations.

SCZ027-030-031-034>040-042>050-230400-
...Southeast South Carolina...

CITY           SKY/WX    TMP DP  RH WIND       PRES   REMARKS
N Charleston   MOCLDY    63  60  90 S8        30.05F
Waterfront Prk NOT AVBL
Mount Pleasant MOCLDY    64  63  94 S10       30.06F
Johns Island   FAIR      61  61 100 S9        30.06F
Pinopolis        N/A     61  61 100 VRB2      29.96S
Moncks Corner  FAIR      59  59 100 S3        30.05F
Summerville    FAIR      63  61  94 SE5       30.05F
Beaufort MCAS  FAIR      60  60 100 S8        30.03F
Beaufort Arpt  FAIR      63  61  94 S9        30.04F
Hilton Head Is FAIR      63  61  94 S10       30.05F
Walterboro     FAIR      61  61 100 SE7       30.04F
Allendale      FAIR      63  61  94 S8        30.00F

...Southern Midlands and Pee Dee...

CITY           SKY/WX    TMP DP  RH WIND       PRES   REMARKS
Georgetown     FAIR      50  50 100 CALM      30.08S
Kingstree      FAIR      57  55  94 E5        30.04F
Orangeburg     FAIR      63  60  90 S8        30.02F
Barnwell         N/A     64  63  94 SE9       29.99F
Aiken          FAIR      63  59  88 SE10      30.00F
Manning        FAIR      63  54  72 MISG      30.04F
Columbia       CLOUDY    65  62  90 SE12      29.98F
Sumter         MOCLDY    60  58  92 SE6       30.00F
Florence       CLOUDY    59  58  96 S9        30.04F
Myrtle Beach   FAIR      60  58  92 S12       30.09S
N Myrtle Beach FAIR      58  57  97 S7        30.07S

$$

GAZ063-065-086>088-099>101-113>116-118-119-134>141-150-230400-
...Southeast Georgia...

CITY           SKY/WX    TMP DP  RH WIND       PRES   REMARKS
Savannah Arpt  CLOUDY    63  61  93 S13       30.04F
Hunter AAF     FAIR      63  60  89 S7        30.02S
Fort Stewart   CLOUDY    66  61  85 S7        30.01F
Statesboro     FAIR      66  60  81 S9        30.01S
Sylvania       FAIR      65  64  94 S7        30.01F
Claxton        MOCLDY    68  64  85 SE6       30.01F

...CSRA, Central and far Southeast Georgia...

CITY           SKY/WX    TMP DP  RH WIND       PRES   REMARKS
Thomson        RAIN      62  60  93 W3        29.98F FOG
Augusta-Bush   CLOUDY    67  61  81 S10       29.95F
Augusta-Daniel CLOUDY    66  60  81 S10       29.96F
Swainsboro     MOCLDY    66  63  88 S10G17    29.99F
Vidalia        MOCLDY    66  63  88 S6        30.00F
Eastman        MOCLDY    69  54  59 S6        30.01S
Hazlehurst     FAIR      68  58  70 S3        29.98F
Alma           MOCLDY    68  61  78 SE9       30.00F
Waycross       CLOUDY    68  62  80 S7        30.02F
Jesup          NOT AVBL
Baxley         FAIR      64  64 100 S7        30.00F
Brunswick      CLOUDY    64  61  88 S7        30.06R
Saint Simons   MOCLDY    58  58 100 S6        30.04S

$$

SCZ027-028-034-036>038-045-046-048>050-GAZ119-141-230400-
...Lake and Supplemental Coastal Observations...

STATION/POSITION TIME  TEMP    WIND        PRES    WAVE   SWELL
                       AIR SEA DIR/SP/G            HT/PER HT/PER/DIR
                 (UTC) (F)     (DEG/KT/KT) (MB)    (FT/S) (FT/S/D)
Winyah Bay       0145   54        CALM     1018.0
Lake Murray      0220   62     140/  8/ 11 1014.9
ACE Basin NERRS  0145   59     140/  3     1018.0
Fort Pulaski     0236   62 47  180/  5/  8 1017.6R
Sapelo Island    0200   59     170/  6     1017.0

$$

ANZ835-935-AMZ111-154-330-350-352-354-370-450-454-472-230400-
...C-MAN and Buoy Observations...

STATION/POSITION TIME  TEMP    WIND        PRES    WAVE   SWELL
                       AIR SEA DIR/SP/G            HT/PER HT/PER/DIR
                 (UTC) (F)     (DEG/KT/KT) (MB)    (FT/S) (FT/S/D)
Buoy 41004       0250   71 70  170/ 17/ 21 1018.0R   3/ 5   2/140/10
Buoy 41008       0250   58 52  140/ 10/ 10 1017.0F   2/ 5   2/ 90/10
Folly Beach CMAN 0200   57     150/  9/ 10 1018.4S
Capers Nearshore 0208   54 52  160/  6/ 10 1017.8S
Fripp Nearshore  0208   52 49  160/  8/ 10 1016.6F


STATION/POSITION TIME  TEMP    WIND        PRES    WAVE   SWELL
                       AIR SEA DIR/SP/G            HT/PER HT/PER/DIR
                 (UTC) (F)     (DEG/KT/KT) (MB)    (FT/S) (FT/S/D)
5E St. Marys GA  0230      50                N/A     2/ 5
Frying Pan Buoy  0250   70 65  170/ 17/ 21 1018.5F   4/ 4   2/140/10
Buoy 41025       0250   70 70  180/ 14/ 17 1019.6F   2/10   2/150/10
Cape Lookout NC  0200          170/  7/  8 1019.6F
Buoy 41002       0250   69 70  140/ 16/ 17 1021.9F   2/ 9   2/110/ 9
Buoy 41010       NOT AVBL
St Augustine FL  0300   58 54  170/ 12/ 13 1017.3F


$$




USA.gov is the U.S. government's official web portal to all federal, state and local government web resources and services.